CELTEE 1

Last updated on Sat Dec 13 2025 00:03:49 GMT+0000 (Coordinated Universal Time)

1 41850U 16067C 25346.07335287 .00010568 00000+0 53467-3 0 9990 2 41850 98.0877 194.8925 0001825 111.6482 248.4944 15.17233684497483
UTC large
Height (km)
Speed (km/s)
/
Latitude / Longitude
Inclination (degrees)
Orbital Period (minutes)
Azimuth
Elevation
Range (km)
Doppler Factor

Next 0 passes for location: London (51.5072 / 0.1276)

Sorry there are no passes over London.